Probability
9 8 8 7 4 3 4 4 3 1 0 0 0 0 0 0 0 1 0 1 1 1 1 2 2 2 1 1 0 0 0 0 1 1 1 2 2 1 1 1 1 2 2
8 7 6 6 5 4 5 5 4 2 1 0 0 0 0 1 1 1 1 1 3 3 3 3 3 2 1 1 1 1 1 1 0 1 2 3 4 3 3 2 3 4 5
7 6 5 5 4 4 5 6 4 3 1 0 0 0 1 1 2 2 1 1 3 4 5 5 4 3 2 2 2 3 3 3 2 2 3 4 4 4 4 3 4 5 6
7 7 6 4 3 3 4 5 5 4 2 1 0 0 1 1 1 1 1 2 3 4 6 7 6 4 3 3 3 4 5 6 6 5 5 4 4 5 5 4 4 4 6
6 7 7 6 5 4 4 4 4 4 3 1 0 0 0 0 0 1 2 2 2 3 4 6 5 3 3 3 4 5 6 8 8 7 6 6 6 6 6 5 4 4 6
4 6 7 8 8 7 5 4 4 4 2 1 1 0 0 0 1 2 2 1 1 1 1 2 2 2 2 3 4 5 6 8 8 6 6 8 8 8 8 7 6 6 7
3 5 8 10 10 9 7 5 4 3 2 2 2 1 1 1 2 2 1 0 0 0 0 0 0 0 1 3 4 4 5 7 7 5 5 7 8 9 10 9 8 9 9
2 3 7 10 11 11 10 7 5 4 3 3 3 2 2 2 2 1 0 0 0 0 0 0 0 1 2 3 3 3 3 5 6 5 5 5 7 8 9 10 10 11 11
1 2 5 9 12 14 14 10 8 7 4 3 3 3 2 2 1 0 0 0 0 0 0 0 1 3 5 6 5 3 2 2 4 5 5 4 5 6 6 7 8 10 11
1 2 4 7 11 15 15 13 12 10 7 3 2 3 3 3 2 1 0 0 1 1 1 1 1 4 6 8 9 6 3 1 2 3 3 4 5 4 3 2 3 5 7
5 4 4 5 8 11 13 14 14 13 10 7 5 5 5 4 2 1 0 0 1 1 1 1 2 4 7 9 10 8 4 1 0 1 1 3 4 3 2 1 2 3 3
7 7 6 5 6 9 13 15 15 15 14 12 11 9 7 5 4 2 1 1 1 1 1 1 3 5 7 7 8 7 4 1 0 0 1 2 2 3 3 3 4 5 4
6 8 9 10 9 11 15 16 17 18 18 17 15 13 10 9 7 5 4 2 1 1 2 1 2 5 6 6 6 5 4 1 0 0 0 1 1 1 2 3 5 6 5
6 7 10 13 13 13 14 16 17 19 21 19 18 16 13 11 9 9 8 5 2 1 1 2 3 5 6 6 6 6 5 2 0 0 0 0 0 0 1 1 2 3 4
7 7 9 13 16 17 16 15 15 18 21 21 20 18 15 12 11 11 10 8 6 3 2 3 6 7 6 6 7 8 6 3 0 0 0 0 0 0 0 0 1 1 1
11 10 11 15 19 21 21 18 16 18 21 22 22 21 18 16 14 12 12 13 12 9 5 5 7 9 10 9 10 11 9 6 3 1 0 0 0 0 0 0 0 0 0
16 16 17 19 21 23 24 22 20 19 21 21 22 22 20 18 16 14 14 15 16 14 10 8 8 10 12 13 14 14 12 10 8 3 0 0 0 0 0 0 0 0 0
22 22 22 23 23 25 25 24 22 21 20 19 20 20 18 16 15 16 16 16 15 15 13 10 10 11 13 14 15 14 12 11 9 4 1 0 0 0 0 0 0 0 0
28 26 24 24 25 26 25 24 23 21 19 16 16 16 16 15 15 16 17 17 15 14 14 12 12 13 13 13 13 11 10 10 7 4 1 0 0 0 0 0 0 0 0
27 25 24 25 25 24 23 21 20 19 17 15 14 15 16 17 16 16 17 18 19 18 15 13 14 15 14 14 12 10 9 8 6 4 2 1 1 1 1 0 0 0 0
24 24 24 24 23 21 18 16 16 16 14 13 13 15 16 17 15 12 12 15 19 21 19 17 18 17 17 16 14 11 9 7 7 6 4 3 3 3 2 1 0 0 0
24 23 22 21 21 17 13 10 11 13 13 13 14 14 14 14 13 10 7 8 13 17 19 20 20 19 19 18 16 14 12 10 10 9 7 5 4 4 4 2 0 0 0
23 21 21 21 20 15 9 5 6 9 12 14 14 13 12 11 13 13 8 6 8 10 13 18 20 20 19 17 17 17 17 15 13 11 8 6 5 5 3 1 0 0 0
20 19 19 20 19 13 7 3 5 8 11 12 12 11 10 10 13 13 11 11 12 11 9 12 16 17 15 14 15 17 17 16 14 12 9 6 6 5 3 1 0 0 0
19 17 16 15 14 10 6 3 5 9 11 10 9 8 8 9 9 8 9 13 16 13 8 7 9 9 8 8 10 12 14 14 13 11 8 5 4 4 3 2 0 0 0
19 16 13 11 10 9 6 2 4 10 12 10 9 8 7 7 5 4 8 14 15 13 8 5 4 3 3 4 6 9 11 12 12 10 7 3 1 1 2 1 0 0 0
Wind_Speed
1 1 1 0 1 1 2 2 2 3 3 4 4 4 4 3 3 2 2 8 8 8 8 9 9 10 10 10 10 10 10 10 9 9 9 9 10 10 10 10 9 9 9
0 0 1 1 1 1 1 2 2 3 3 3 4 4 4 4 3 3 3 5 9 9 8 9 9 10 10 10 10 9 9 9 9 9 9 9 9 10 10 10 9 10 9
1 2 2 2 1 2 2 2 3 2 3 3 4 4 4 4 3 4 4 4 5 10 11 9 9 9 10 10 10 9 9 8 8 8 8 8 8 8 9 10 10 9 9
3 3 2 2 1 2 2 2 2 2 2 3 3 3 3 3 4 4 4 4 4 4 7 9 8 8 9 9 9 9 9 8 8 8 8 8 8 8 9 9 9 9 9
3 3 2 1 2 2 2 2 1 2 2 2 3 3 3 3 3 4 3 4 3 3 3 6 9 8 9 9 9 9 10 9 9 9 9 8 9 9 9 9 10 10 10
3 3 3 2 3 2 2 1 2 2 2 2 2 1 2 2 2 2 3 3 3 3 3 3 4 7 9 8 8 8 9 10 10 11 10 9 9 9 9 10 10 11 10
3 3 3 2 3 2 2 2 1 2 1 1 1 1 1 2 2 2 2 2 2 3 3 3 3 3 4 9 8 8 9 9 9 10 10 10 10 10 10 11 10 10 11
3 3 4 3 2 2 2 1 1 2 0 0 1 1 1 2 3 3 3 3 3 2 3 4 4 4 4 4 5 9 8 8 8 9 10 10 10 10 11 11 11 10 11
2 3 2 3 2 2 1 1 2 2 1 1 1 2 2 1 1 2 3 3 3 3 3 3 5 4 6 5 4 8 8 7 8 9 9 9 9 10 10 10 10 10 10
2 2 2 2 2 1 1 2 1 2 2 2 1 1 2 2 3 2 2 2 3 3 4 4 4 4 5 5 4 3 6 7 8 8 8 8 8 9 9 9 9 9 9
1 1 2 1 2 2 1 2 2 2 2 3 2 2 2 3 4 4 3 3 3 3 3 4 4 4 4 5 4 3 5 6 7 7 8 8 8 8 8 8 9 8 8
1 1 1 1 2 2 2 2 2 3 3 3 3 3 3 3 3 3 4 4 4 3 4 3 4 4 4 4 5 2 4 6 6 7 7 7 7 7 8 8 8 8 9
1 1 2 1 2 2 2 3 3 3 3 3 4 3 3 4 3 4 4 5 5 4 3 4 3 3 4 3 3 3 5 6 6 7 7 7 7 6 7 7 8 8 8
2 1 2 2 2 3 3 3 3 3 2 3 4 3 3 3 3 4 4 4 5 4 4 4 3 3 3 4 2 5 4 6 6 7 7 7 7 6 7 7 7 8 7
2 1 2 2 2 2 2 3 2 3 3 3 3 3 3 3 3 3 4 5 5 6 5 3 3 3 3 4 2 4 4 4 6 6 7 7 7 7 7 7 7 7 7
2 2 2 2 2 2 2 2 2 2 3 3 3 4 4 4 3 4 4 4 5 6 6 4 4 4 3 4 3 4 4 4 7 7 7 7 7 6 6 7 7 7 7
2 2 3 3 2 2 2 2 3 3 4 4 4 4 5 5 4 4 4 4 5 5 6 6 4 3 4 5 3 4 4 5 4 7 7 7 7 7 6 6 7 7 7
3 3 3 3 3 2 3 3 4 3 4 5 5 5 5 4 5 5 4 5 5 5 6 6 5 4 4 4 4 5 5 4 4 5 7 7 7 7 7 7 6 6 6
3 3 3 3 3 3 3 4 4 4 5 5 5 5 5 5 6 4 5 5 5 5 5 6 6 4 4 4 4 5 5 4 6 4 7 8 8 8 8 8 7 7 6
4 4 4 4 4 4 4 4 4 4 5 5 5 6 6 6 6 6 6 6 6 6 5 6 5 5 4 3 4 4 4 3 4 4 3 4 6 8 9 9 9 8 7
4 4 4 4 4 4 3 4 5 5 5 5 5 6 6 5 5 5 6 5 6 6 5 5 5 5 4 3 4 4 5 4 4 4 4 4 5 5 7 9 9 8 7
4 4 4 4 4 3 1 3 6 5 5 5 5 6 6 6 5 7 7 7 7 7 7 6 5 5 6 5 4 5 5 5 5 3 4 4 4 4 4 4 5 8 8
3 4 4 4 4 2 1 4 6 7 6 5 5 5 6 4 5 6 7 8 8 8 8 8 7 7 6 5 6 7 6 6 5 3 4 5 4 4 4 3 5 6 7
3 3 4 4 4 2 1 4 6 7 6 5 5 5 6 5 4 5 7 7 7 6 7 7 6 7 6 5 6 7 7 7 7 5 5 6 5 5 4 3 6 7 8
3 3 3 3 4 3 1 3 5 5 5 5 5 5 5 5 3 5 7 7 6 6 5 5 6 6 6 7 7 6 6 6 6 4 4 5 5 5 5 5 5 9 9
3 4 3 4 4 4 1 2 5 5 5 5 4 4 3 4 4 4 6 6 6 6 5 5 5 7 7 7 8 8 7 6 5 4 3 4 5 4 5 4 3 4 6
Wind_Direction
145 141 146 217 230 216 203 217 222 209 223 215 220 219 226 225 237 246 164 173 190 207 218 219 217 214 214 213 216 220 221 221 219 218 219 221 223 223 223 222 221 220 219
173 254 219 223 237 240 252 247 234 221 224 222 224 227 234 227 219 230 229 193 195 203 214 220 222 221 217 215 217 218 220 220 220 219 221 223 225 226 227 224 224 225 223
211 231 238 230 232 243 235 238 240 238 224 219 223 230 235 231 225 228 234 237 212 200 206 216 222 223 220 218 218 217 219 221 220 217 218 222 223 226 227 227 227 227 223
224 235 240 233 232 245 251 240 236 238 234 231 229 236 238 223 224 227 235 237 243 231 200 203 217 219 219 222 220 218 219 220 217 217 219 222 222 222 225 226 225 224 223
239 243 243 250 241 234 246 257 247 255 246 247 240 230 243 231 223 225 239 241 235 242 239 192 205 214 217 219 218 220 221 219 216 220 221 222 223 223 223 227 229 226 226
241 251 235 220 241 239 238 237 235 240 259 265 274 278 264 254 235 224 238 233 232 238 239 239 216 201 204 211 218 223 226 222 218 220 221 221 224 224 223 226 229 230 229
249 248 267 229 241 244 247 236 232 230 238 285 288 288 255 229 228 223 239 253 247 242 237 235 245 249 206 199 209 223 228 230 223 222 222 224 225 225 227 228 228 229 231
251 233 236 244 231 237 228 230 225 261 262 124 282 274 241 209 208 230 236 234 252 255 239 234 240 237 258 237 186 202 219 229 229 226 225 224 225 229 230 230 231 232 234
265 270 244 254 249 244 222 233 236 244 246 217 233 280 273 271 276 217 232 240 246 262 260 255 244 237 246 250 225 199 209 224 231 230 228 227 227 228 230 232 233 232 232
267 261 250 241 249 260 238 240 221 241 239 241 207 237 279 305 277 279 236 235 245 252 262 260 254 237 239 244 230 221 208 223 228 232 233 233 233 232 231 232 235 233 229
259 262 250 251 246 257 256 254 237 248 244 250 253 237 236 238 248 264 277 273 256 255 259 260 263 257 248 245 241 217 199 220 221 231 239 242 240 237 234 235 236 233 230
244 264 265 278 274 275 257 242 237 228 247 252 258 251 245 252 263 266 270 274 277 269 256 259 260 258 254 248 242 174 200 212 219 228 237 240 241 239 236 236 236 235 233
270 307 297 285 286 274 254 247 229 236 237 240 246 252 253 254 264 270 275 283 286 283 260 246 250 258 261 257 239 192 214 215 218 225 231 234 235 236 239 240 238 238 238
287 312 283 273 272 272 262 249 246 233 230 239 244 255 260 259 259 256 267 278 279 276 260 258 258 257 273 268 252 217 230 202 214 222 227 231 232 233 237 240 241 240 238
258 258 269 267 265 258 259 262 263 259 253 250 249 238 250 257 256 262 260 264 269 279 278 261 259 257 261 261 236 245 249 199 205 217 221 226 230 233 237 239 240 239 237
264 266 266 265 260 253 248 255 256 257 261 262 265 266 264 265 265 256 257 263 262 266 276 278 275 282 286 273 222 254 255 204 204 210 215 217 223 226 229 231 233 234 234
244 249 256 259 257 257 253 252 260 257 259 261 261 258 260 271 275 267 259 261 261 263 268 278 276 275 270 273 267 269 261 255 223 198 208 215 219 223 223 226 227 228 230
245 244 249 250 252 250 252 253 260 260 261 260 261 264 267 263 261 266 267 263 263 259 263 276 282 275 267 265 265 265 266 264 265 193 200 212 216 218 220 223 222 221 225
243 251 249 248 253 256 258 262 263 261 259 262 264 264 267 268 266 268 265 265 267 263 263 268 273 275 269 265 268 265 268 271 268 218 202 209 212 216 217 218 216 216 220
238 244 247 250 252 252 257 266 262 261 260 260 262 266 268 264 263 264 258 256 262 266 260 261 267 265 261 254 259 266 265 252 262 264 256 239 216 213 216 212 211 214 218
235 240 246 249 252 250 261 274 266 260 264 265 265 268 266 268 275 276 279 279 273 268 265 264 265 270 270 267 265 267 269 265 252 254 253 245 232 230 214 210 209 214 218
237 238 244 246 249 260 337 290 281 270 265 264 268 271 268 251 252 253 264 273 275 269 274 271 267 268 271 271 270 266 266 266 265 242 256 258 254 256 245 236 190 195 213
237 241 247 250 253 265 279 276 279 275 269 270 271 273 274 272 258 262 254 248 251 252 257 265 272 275 275 273 271 265 262 266 272 272 267 266 257 260 256 233 170 190 209
249 248 248 253 253 250 236 264 276 265 267 266 265 267 272 281 279 285 276 268 263 257 252 254 267 272 276 280 269 267 266 256 256 249 246 263 257 253 250 234 181 198 212
242 245 244 247 253 256 237 264 280 267 265 267 266 268 273 275 299 298 276 272 270 265 247 249 261 261 265 262 264 262 257 256 259 254 238 259 266 269 258 242 205 199 212
240 245 243 245 251 257 220 249 278 269 274 275 265 253 249 282 296 279 271 271 272 279 285 271 252 241 242 234 232 246 256 259 262 262 234 254 262 264 263 248 245 214 214